Weather History for Lone Rock, WI

Change the Weather History Date:

Monday, November 12, 2012

  Actual Average Record
Temperature  
Mean Temperature 26 °F -  
Max Temperature 28 °F 45 °F 62 °F (2005)
Min Temperature 24 °F 28 °F 10 °F (1996)
Degree Days  
Heating Degree Days 39    
Moisture  
Dew Point 17 °F    
Average Humidity 67    
Maximum Humidity 80    
Minimum Humidity 58    
Precipitation  
Precipitation 0.00 in - - ()
Sea Level Pressure  
Sea Level Pressure 30.12 in    
Wind  
Wind Speed 14 mph (West)    
Max Wind Speed 17 mph    
Max Gust Speed 31 mph    
Visibility 9 miles    
Events Snow    
Averages and records for this station are not official NWS values.
T = Trace of Precipitation, MM = Missing Value Source: NWS Daily Summary

Daily Weather History Graph

Daily Weather History Graph

Search for Another Location

Airport:

Trip Planner

Search our weather history database for the weather conditions in past years. The results will help you decide how hot, cold, wet, or windy it might be!

Date:

Astronomy

Nov. 12, 2012 Rise Set
Actual Time 6:50 AM CST 4:38 PM CST
Civil Twilight 6:19 AM CST 5:09 PM CST
Nautical Twilight 5:45 AM CST 5:43 PM CST
Astronomical Twilight 5:12 AM CST 6:17 PM CST
Moon 5:14 AM CST (11/12) 3:44 PM CST (11/12)
Length of Visible Light 10h 49m
Length of Day
9h 48m
Waning Crescent, 2% of the Moon is Illuminated
Nov 12
Waning Crescent
Nov 13
New
Nov 20
First Quarter
Nov 28
Full
Dec 6
Last Quarter

Hourly Weather History & Observations

Time (CST) Temp. Windchill Dew Point Humidity Pressure Visibility Wind Dir Wind Speed Gust Speed Precip Events Conditions
12:56 AM 28.9 °F 16.9 °F 19.9 °F 69% 29.97 in 10.0 mi West 17.3 mph - N/A   Overcast
1:56 AM 28.9 °F 19.2 °F 19.0 °F 67% 29.97 in 10.0 mi WNW 11.5 mph - N/A   Overcast
2:56 AM 28.0 °F 17.0 °F 19.0 °F 69% 30.01 in 10.0 mi West 13.8 mph 20.7 mph N/A   Overcast
3:56 AM 27.0 °F 16.7 °F 17.1 °F 66% 30.02 in 10.0 mi West 11.5 mph 21.9 mph N/A   Mostly Cloudy
4:19 AM 26.6 °F 13.8 °F 15.8 °F 64% 30.01 in 10.0 mi West 17.3 mph - N/A   Scattered Clouds
4:41 AM 26.6 °F 15.7 °F 15.8 °F 64% 30.01 in 10.0 mi West 12.7 mph - N/A   Mostly Cloudy
4:56 AM 26.1 °F 14.5 °F 16.0 °F 66% 30.02 in 10.0 mi West 13.8 mph - N/A   Overcast
5:56 AM 25.0 °F 13.1 °F 16.0 °F 69% 30.04 in 10.0 mi West 13.8 mph 19.6 mph N/A   Overcast
6:56 AM 24.1 °F 10.6 °F 15.1 °F 69% 30.06 in 10.0 mi West 17.3 mph 24.2 mph N/A   Overcast
7:56 AM 24.1 °F 12.0 °F 15.1 °F 69% 30.07 in 10.0 mi WSW 13.8 mph 21.9 mph N/A   Overcast
8:45 AM 24.8 °F 13.4 °F 15.8 °F 69% 30.07 in 10.0 mi West 12.7 mph 20.7 mph N/A   Overcast
8:56 AM 25.0 °F 13.6 °F 15.1 °F 66% 30.08 in 10.0 mi WSW 12.7 mph - N/A   Overcast
9:56 AM 26.1 °F 16.2 °F 15.1 °F 63% 30.09 in 10.0 mi WSW 10.4 mph 21.9 mph N/A   Overcast
10:56 AM 27.0 °F 14.7 °F 16.0 °F 63% 30.09 in 10.0 mi WSW 16.1 mph 23.0 mph N/A   Overcast
11:56 AM 27.0 °F 14.3 °F 17.1 °F 66% 30.08 in 10.0 mi West 17.3 mph 23.0 mph N/A   Overcast
12:17 PM 26.6 °F 15.2 °F 15.8 °F 64% 30.07 in 10.0 mi West 13.8 mph 25.3 mph 0.00 in   Overcast
12:42 PM 26.6 °F 15.2 °F 17.6 °F 69% 30.08 in 10.0 mi West 13.8 mph 31.1 mph 0.00 in   Overcast
12:56 PM 26.1 °F 13.1 °F 17.1 °F 69% 30.10 in 9.0 mi WSW 17.3 mph 25.3 mph 0.00 in Snow Light Snow
1:56 PM 27.0 °F 16.7 °F 17.1 °F 66% 30.10 in 10.0 mi WSW 11.5 mph - 0.00 in   Overcast
2:56 PM 27.0 °F 16.7 °F 19.0 °F 72% 30.13 in 5.0 mi West 11.5 mph 17.3 mph 0.00 in Snow Light Snow
3:21 PM 26.6 °F 14.7 °F 19.4 °F 74% 30.13 in 2.5 mi West 15.0 mph 24.2 mph 0.00 in Snow Light Snow
3:24 PM 26.6 °F 14.3 °F 19.4 °F 74% 30.13 in 1.8 mi West 16.1 mph 24.2 mph 0.00 in Snow Light Snow
3:38 PM 26.6 °F 14.7 °F 21.2 °F 80% 30.13 in 2.5 mi West 15.0 mph 20.7 mph 0.00 in Snow Light Snow
3:56 PM 27.0 °F 16.7 °F 19.9 °F 75% 30.15 in 4.0 mi West 11.5 mph 19.6 mph 0.00 in Snow Light Snow
4:56 PM 26.1 °F 15.0 °F 19.0 °F 75% 30.18 in 10.0 mi West 12.7 mph 20.7 mph 0.00 in   Mostly Cloudy
5:56 PM 26.1 °F 15.6 °F 18.0 °F 71% 30.22 in 10.0 mi West 11.5 mph - 0.00 in   Mostly Cloudy
6:56 PM 27.0 °F 15.6 °F 14.0 °F 58% 30.25 in 10.0 mi West 13.8 mph - N/A   Mostly Cloudy
7:56 PM 27.0 °F 15.2 °F 14.0 °F 58% 30.26 in 10.0 mi West 15.0 mph - N/A   Mostly Cloudy
8:56 PM 27.0 °F 16.1 °F 14.0 °F 58% 30.28 in 10.0 mi West 12.7 mph - N/A   Overcast
9:56 PM 27.0 °F 16.1 °F 14.0 °F 58% 30.31 in 10.0 mi West 12.7 mph 20.7 mph N/A   Overcast
10:56 PM 27.0 °F 16.7 °F 15.1 °F 61% 30.32 in 10.0 mi West 11.5 mph - N/A   Overcast
11:56 PM 24.1 °F 18.2 °F 16.0 °F 71% 30.34 in 10.0 mi West 4.6 mph - N/A   Partly Cloudy